Terug naar catalogus

SL-16 DEB

ActiefLEO
NORAD 29097·DEBRIS·🇷🇺 Russia

Gelanceerd Mar 26, 1993 vanaf Baikonur Cosmodrome

Loading…

Volgende Passages (komende 24 uur)

TLE

VersSource: Space-Track

Epoch: Sep 12, 2026, 13:57 UTC

1 29097U 93016AL  26255.58180772  .00000057  00000-0  71205-4 0  9995
2 29097  71.0087 357.8750 0123507 116.1686 258.4722 13.94627140286333

Volg SL-16 DEB in realtime met AllMySat

Download on the App Store